(73930) = 1997 PV = 2002 RA56

Discovered at Caussols on 1997-08-03 by ODAS.

Orbit

Orbit type: Main Belt

Note: WebGL enabled browser required.

epoch2024-03-31.0
epoch JD2460400.5
perihelion date2020-12-10.84521
perihelion JD2459194.34521
argument of perihelion (°)11.97442
ascending node (°)306.07434
inclination (°)5.40971
eccentricity0.0824507
perihelion distance (AU)2.5660441
Tisserand w.r.t. Jupiter3.3
ΔV w.r.t. Earth (km/sec)10.2
semimajor axis (AU)2.7966280
mean anomaly (°)254.18787
mean daily motion (°/day)0.21074230
aphelion distance (AU)3.027
period (years)4.68
P-vector [x]0.74296711
P-vector [y]-0.62161466
P-vector [z]-0.24818358
Q-vector [x]0.66497630
Q-vector [y]0.64330515
Q-vector [z]0.37942721
absolute magnitude15.24
phase slope0.15
uncertainty0
referenceMPEC 2024-F28
observations used1041
oppositions19
arc length (days)23158
first opposition used1960
last opposition used2024
residual rms (arc-secs)0.72
perturbers coarse indicatorM-v
perturbers precise indicator003Ek
first observation date used1960-10-22.0
last observation date used2024-03-18.0
computer nameMPCLINUX
JD of orbit computation2456789.244530
perihelion JD uncertainty (days)1.1712E-04
argument of perihelion uncertainty (°)4.3192E-05
ascending node uncertainty (°)3.7050E-05
inclination uncertainty (°)4.5544E-06
eccentricity uncertainty 4.4721E-08
perihelion distance uncertainty (AU)1.2814E-07
Minimum Orbit Intersection Distances (in AU)
for orbit epoch: 2460400.5, reference: E2024-GD4
Mercury2.13718
Venus1.84026
Earth1.55264
Mars1.1693
Jupiter2.19949
Saturn6.0757
Uranus15.4395
Neptune27.0473

Observations

1076 total observations over interval: 1960 10 22.12084 – 2024 03 18.513557
These data are available for download (format description).

Date (UT) J2000 RA J2000 Dec Magn Location Ref
1960 10 22.12084 00 25 20.51 +11 22 14.0 19.9   675 – Palomar Mountain MPS 285177
1960 10 26.37952 00 22 38.29 +11 01 13.3 19.5   675 – Palomar Mountain MPS 285177
1997 08 01.99943 21 53 42.69 -10 34 48.4 19.2 V 910 – Caussols-ODAS MPC 30620
1997 08 02.02351 21 53 41.52 -10 34 50.3 19.3 V 910 – Caussols-ODAS MPC 30620
1997 08 02.04678 21 53 40.38 -10 34 52.3 19.2 V 910 – Caussols-ODAS MPC 30620
1997 08 03.90897 21 52 12.16 -10 37 43.7 18.7 V 910 – Caussols-ODAS MPC 30425
1997 08 03.93407 21 52 10.93 -10 37 46.4 19.3 V 910 – Caussols-ODAS MPC 30425
1997 08 03.95828 21 52 09.65 -10 37 48.9 18.9 V 910 – Caussols-ODAS MPC 30425
1997 08 04.89423 21 51 24.30 -10 39 19.4 19.1 V 910 – Caussols-ODAS MPC 30425
1997 08 04.91831 21 51 23.10 -10 39 22.6 19.4 V 910 – Caussols-ODAS MPC 30425
1997 08 04.94221 21 51 21.88 -10 39 25.2 19.4 V 910 – Caussols-ODAS MPC 30425
1997 08 06.02601 21 50 28.25 -10 41 16.6 19.4 V 910 – Caussols-ODAS MPC 30425
1997 08 06.04964 21 50 27.04 -10 41 19.0 19.4 V 910 – Caussols-ODAS MPC 30425
1997 08 06.07335 21 50 25.82 -10 41 21.4 19.5 V 910 – Caussols-ODAS MPC 30425
1997 09 26.86752 21 16 27.47 -12 01 56.0 20.7 V 910 – Caussols-ODAS MPS 60712
1997 09 26.89100 21 16 27.25 -12 01 55.9 20.6 V 910 – Caussols-ODAS MPS 60712
1997 09 26.91436 21 16 26.99 -12 01 55.7 20.8 V 910 – Caussols-ODAS MPS 60712
2000 02 06.35435 10 33 52.04 +05 30 04.1 19.0   704 – Lincoln Laboratory ETS, New Mexico MPS 60712
2000 02 06.36910 10 33 51.44 +05 30 06.2 19.4   704 – Lincoln Laboratory ETS, New Mexico MPS 60712
2000 02 06.38407 10 33 50.72 +05 30 08.6 18.8   704 – Lincoln Laboratory ETS, New Mexico MPS 60712
2000 03 11.17458 10 05 48.12 +07 22 33.7 19.2   704 – Lincoln Laboratory ETS, New Mexico MPS 60712
2000 03 11.21203 10 05 46.35 +07 22 42.7 19.5   704 – Lincoln Laboratory ETS, New Mexico MPS 60712
2000 03 11.22694 10 05 45.63 +07 22 46.7 19.4   704 – Lincoln Laboratory ETS, New Mexico MPS 60712
2002 09 05.33378 00 15 32.45 +08 54 50.4 18.5 R 699 – Lowell Observatory-LONEOS MPS 61655
2002 09 05.34783 00 15 31.87 +08 54 48.9   699 – Lowell Observatory-LONEOS MPS 61655
2002 09 05.36186 00 15 31.20 +08 54 47.8   699 – Lowell Observatory-LONEOS MPS 61655
2002 09 05.37587 00 15 30.68 +08 54 46.3   699 – Lowell Observatory-LONEOS MPS 61655
2002 09 06.26675 00 14 53.34 +08 53 08.9 19.0   704 – Lincoln Laboratory ETS, New Mexico MPS 61655
2002 09 06.28066 00 14 52.74 +08 53 07.2 19.2   704 – Lincoln Laboratory ETS, New Mexico MPS 61655
2002 09 06.29451 00 14 52.16 +08 53 05.9 19.4   704 – Lincoln Laboratory ETS, New Mexico MPS 61655
2002 09 06.30835 00 14 51.53 +08 53 04.3 19.4   704 – Lincoln Laboratory ETS, New Mexico MPS 61655
2002 09 06.32238 00 14 50.88 +08 53 03.2 19.5   704 – Lincoln Laboratory ETS, New Mexico MPS 61655
2002 09 07.33063 00 14 07.43 +08 51 01.9 19.6   704 – Lincoln Laboratory ETS, New Mexico MPS 61655
2002 09 07.33075 00 14 07.53 +08 51 03.2 18.9   704 – Lincoln Laboratory ETS, New Mexico MPS 61655
2002 09 07.34468 00 14 06.86 +08 51 00.0 19.8   704 – Lincoln Laboratory ETS, New Mexico MPS 61655
2002 09 07.34480 00 14 06.99 +08 51 01.1 19.9   704 – Lincoln Laboratory ETS, New Mexico MPS 61655
2002 09 07.35876 00 14 06.21 +08 50 57.9 19.6   704 – Lincoln Laboratory ETS, New Mexico MPS 61655
2002 09 07.35887 00 14 06.24 +08 50 59.5 19.2   704 – Lincoln Laboratory ETS, New Mexico MPS 61655
2002 09 07.37291 00 14 05.58 +08 50 56.6 19.9   704 – Lincoln Laboratory ETS, New Mexico MPS 61655
2002 09 07.37302 00 14 05.62 +08 50 57.7 19.4   704 – Lincoln Laboratory ETS, New Mexico MPS 61655
2002 09 07.38697 00 14 04.94 +08 50 54.9 19.8   704 – Lincoln Laboratory ETS, New Mexico MPS 61655
2002 09 07.38708 00 14 04.93 +08 50 55.5 19.4   704 – Lincoln Laboratory ETS, New Mexico MPS 61655
2002 09 13.45801 00 09 26.04 +08 35 31.6 18.2   644 – Palomar Mountain/NEAT MPS 61655
2002 09 13.46860 00 09 25.51 +08 35 29.5 18.3   644 – Palomar Mountain/NEAT MPS 61655
2002 09 13.48015 00 09 24.96 +08 35 27.7 18.4   644 – Palomar Mountain/NEAT MPS 61655
2002 09 13.49061 00 09 24.42 +08 35 25.5 18.5   644 – Palomar Mountain/NEAT MPS 61655
2002 09 13.50094 00 09 23.91 +08 35 23.7 18.6   644 – Palomar Mountain/NEAT MPS 61655
2002 09 13.51150 00 09 23.39 +08 35 21.8 18.5   644 – Palomar Mountain/NEAT MPS 61655
2002 09 16.33801 00 07 05.97 +08 26 24.8 19.5   608 – Haleakala-AMOS MPS 62527
2002 09 16.34844 00 07 05.44 +08 26 23.1 19.3   608 – Haleakala-AMOS MPS 62527
2002 09 16.35883 00 07 04.91 +08 26 20.9 19.3   608 – Haleakala-AMOS MPS 62527
2002 10 04.25378 23 52 12.94 +07 11 43.5 18.3   704 – Lincoln Laboratory ETS, New Mexico MPS 62527
2002 10 04.26941 23 52 12.17 +07 11 39.1 18.6   704 – Lincoln Laboratory ETS, New Mexico MPS 62527
2002 10 04.28521 23 52 11.40 +07 11 34.8 18.7   704 – Lincoln Laboratory ETS, New Mexico MPS 62527
2002 10 04.30087 23 52 10.62 +07 11 30.5 18.3   704 – Lincoln Laboratory ETS, New Mexico MPS 62527
2002 10 04.31662 23 52 09.89 +07 11 26.4 18.7   704 – Lincoln Laboratory ETS, New Mexico MPS 62527
2002 10 07.17428 23 49 58.85 +06 58 02.4 18.4 R 699 – Lowell Observatory-LONEOS MPS 62527
2002 10 07.19602 23 49 57.84 +06 57 56.1   699 – Lowell Observatory-LONEOS MPS 62527
2002 10 07.21773 23 49 56.79 +06 57 49.9   699 – Lowell Observatory-LONEOS MPS 62527
2002 10 07.23937 23 49 55.71 +06 57 45.3   699 – Lowell Observatory-LONEOS MPS 62527
2002 10 12.17731 23 46 26.09 +06 34 47.8 19.1   704 – Lincoln Laboratory ETS, New Mexico MPS 62527
2002 10 12.19377 23 46 25.40 +06 34 43.8 19.6   704 – Lincoln Laboratory ETS, New Mexico MPS 62527
2002 10 12.22651 23 46 24.11 +06 34 35.2 19.3   704 – Lincoln Laboratory ETS, New Mexico MPS 62527
2002 10 31.16722 23 37 36.96 +05 20 43.0 19.1   704 – Lincoln Laboratory ETS, New Mexico MPS 65308
2002 10 31.18439 23 37 36.70 +05 20 39.1 19.9   704 – Lincoln Laboratory ETS, New Mexico MPS 65308
2002 10 31.20171 23 37 36.36 +05 20 36.8 19.7   704 – Lincoln Laboratory ETS, New Mexico MPS 65308
2002 10 31.21898 23 37 36.12 +05 20 33.2 19.4   704 – Lincoln Laboratory ETS, New Mexico MPS 65308
2002 10 31.23607 23 37 35.85 +05 20 30.0 19.7   704 – Lincoln Laboratory ETS, New Mexico MPS 65308
2003 12 18.34351 06 58 56.39 +26 38 45.1 19.5   704 – Lincoln Laboratory ETS, New Mexico MPS 93548
2003 12 18.35667 06 58 55.71 +26 38 44.7 19.8   704 – Lincoln Laboratory ETS, New Mexico MPS 93548
2003 12 18.39563 06 58 53.59 +26 38 46.9 19.7   704 – Lincoln Laboratory ETS, New Mexico MPS 93548
2003 12 22.27812 06 55 13.49 +26 39 47.2 19.1   704 – Lincoln Laboratory ETS, New Mexico MPS 94398
2003 12 22.29126 06 55 12.67 +26 39 47.8 19.4   704 – Lincoln Laboratory ETS, New Mexico MPS 94398
2003 12 22.30461 06 55 11.93 +26 39 48.2 19.6   704 – Lincoln Laboratory ETS, New Mexico MPS 94398
2003 12 22.31795 06 55 11.13 +26 39 47.9 19.4   704 – Lincoln Laboratory ETS, New Mexico MPS 94398
2004 01 30.10077 06 20 09.73 +26 06 12.2 20.5 V 691 – Steward Observatory, Kitt Peak-Spacewatch MPS 97535
2004 01 30.12798 06 20 08.74 +26 06 09.5 20.5 V 691 – Steward Observatory, Kitt Peak-Spacewatch MPS 97535
2004 01 30.16223 06 20 07.47 +26 06 06.2 20.5 V 691 – Steward Observatory, Kitt Peak-Spacewatch MPS 97535
2005 03 07.26548 12 05 09.17 -07 25 17.2 19.7 C 704 – Lincoln Laboratory ETS, New Mexico MPS 293929
2005 03 07.27714 12 05 08.62 -07 25 16.9 19.8 C 704 – Lincoln Laboratory ETS, New Mexico MPS 293929
2005 03 07.28879 12 05 08.04 -07 25 13.2 19.1 C 704 – Lincoln Laboratory ETS, New Mexico MPS 293929
2005 03 07.30117 12 05 07.49 -07 25 10.4 18.6 C 704 – Lincoln Laboratory ETS, New Mexico MPS 293929
2005 03 07.31282 12 05 06.89 -07 25 08.4 19.1 C 704 – Lincoln Laboratory ETS, New Mexico MPS 293929
2005 03 08.29858 12 04 21.24 -07 22 08.8 19.4 V 691 – Steward Observatory, Kitt Peak-Spacewatch MPS 128735
2005 03 08.32393 12 04 19.99 -07 22 03.8 19.2 V 691 – Steward Observatory, Kitt Peak-Spacewatch MPS 128735
2005 03 08.34993 12 04 18.76 -07 21 59.5 19.5 V 691 – Steward Observatory, Kitt Peak-Spacewatch MPS 128735
2005 03 13.29664 12 00 20.89 -07 05 10.6 18.6   703 – Catalina Sky Survey MPS 129841
2005 03 13.30613 12 00 20.38 -07 05 09.6 18.8   703 – Catalina Sky Survey MPS 129841
